Theta_e
345 347 347 347 347 347 350 351 351 351 351 352 351 351 351 353 353 353 359 358 359 357 357 352 355 353 355 355 354 356 349 353 350 351 351 350 350 345 346 344 343 343 343
346 347 347 347 347 347 348 350 351 353 354 350 349 350 351 352 354 354 359 358 358 357 355 356 354 355 353 355 355 356 352 351 351 353 352 354 351 349 348 346 344 346 347
345 348 348 347 347 348 349 350 351 353 355 352 350 350 353 357 355 354 358 356 357 355 357 357 355 355 355 353 355 354 353 353 352 354 352 358 358 353 351 349 349 350 350
345 347 347 347 347 347 348 349 351 354 357 355 351 351 351 352 351 353 355 355 350 357 356 358 357 356 354 353 354 355 353 354 352 349 349 351 350 354 357 353 353 352 352
345 346 346 345 345 345 346 348 351 354 354 356 355 352 353 350 350 351 359 357 358 360 359 358 359 357 354 354 357 356 355 352 353 348 348 350 351 350 351 356 351 351 351
345 345 344 344 344 344 345 346 350 354 355 358 358 356 352 351 352 351 355 355 356 358 360 359 356 356 356 356 356 356 357 355 354 354 350 351 350 350 350 352 350 349 348
346 345 345 344 344 343 345 346 351 356 357 358 358 358 356 355 356 356 352 352 354 354 355 359 358 356 358 359 358 356 357 357 354 356 351 348 348 347 345 345 349 351 344
349 346 345 343 343 344 345 346 352 358 358 358 359 359 359 355 355 354 351 356 357 355 360 351 356 359 359 359 359 358 356 355 356 356 356 354 351 347 347 347 347 352 348
350 347 345 343 343 344 345 346 352 358 358 357 358 360 360 356 351 352 354 352 354 355 361 357 352 359 359 359 361 358 358 356 357 356 356 354 352 352 349 347 347 347 353
351 349 347 344 343 344 346 347 354 358 357 354 357 358 359 359 357 355 356 355 358 350 345 357 357 354 356 358 360 358 358 358 356 355 356 356 353 353 351 349 347 346 347
351 350 348 345 343 343 345 348 354 356 356 354 355 356 357 358 358 357 357 359 358 360 358 359 358 357 359 359 360 359 358 360 359 358 357 357 357 354 351 352 352 349 348
350 350 348 344 342 345 346 349 351 354 355 354 356 357 358 355 356 356 356 357 359 359 356 356 358 358 359 359 359 358 359 358 357 357 356 358 357 355 356 353 353 353 352
350 349 348 344 343 346 350 352 353 352 354 354 354 356 358 358 355 356 357 357 358 360 360 359 361 359 359 358 357 359 359 359 357 357 359 357 357 356 355 354 353 352 351
350 349 347 345 343 347 358 358 356 353 355 354 353 356 358 359 358 357 358 356 360 364 363 361 361 360 359 359 359 359 360 359 357 357 357 356 354 353 353 354 353 351 352
350 349 346 346 347 354 360 361 359 357 356 351 355 359 359 360 360 360 360 361 363 365 364 364 363 361 361 359 361 357 356 357 356 354 353 353 354 353 352 351 349 351 350
350 348 352 354 352 353 360 363 362 362 353 355 355 360 362 362 362 363 363 363 366 366 365 362 361 360 357 350 350 356 354 355 353 353 355 354 353 350 350 346 345 343 349
351 355 354 351 350 352 361 364 365 361 355 357 359 363 364 366 367 366 366 367 367 365 363 363 362 362 353 342 345 344 354 352 354 351 350 349 351 350 351 351 349 347 343
352 360 353 350 352 353 358 363 363 360 360 361 363 365 366 363 364 368 367 367 365 364 364 363 360 361 354 346 341 340 352 353 352 351 351 350 348 347 347 348 350 349 348
352 353 351 350 353 355 360 363 363 361 360 361 362 363 362 363 366 368 369 365 364 365 360 361 360 361 344 340 338 347 349 348 349 349 345 342 341 334 337 344 348 349 348
350 352 351 350 352 356 359 362 363 362 363 360 361 362 362 366 369 369 367 363 363 363 361 360 359 356 342 339 338 343 343 344 342 348 344 339 336 328 327 337 343 344 347
350 351 351 350 353 356 359 362 359 358 357 357 360 362 366 369 370 366 365 364 363 361 359 358 356 353 347 338 338 338 342 339 339 338 337 333 328 322 328 336 337 338 338
350 352 352 351 354 357 362 358 357 356 355 358 364 369 370 369 367 366 366 364 362 362 358 356 354 347 339 335 333 334 333 329 335 333 330 328 324 327 330 330 330 333 336
349 351 352 352 353 356 359 358 358 357 363 366 371 371 370 369 367 368 366 364 362 357 356 354 350 346 337 330 330 330 327 325 331 328 326 326 327 328 329 327 328 330 331
349 351 352 353 354 358 357 357 358 362 367 371 371 371 370 369 366 364 362 358 355 353 351 351 349 347 343 340 337 334 331 329 328 329 329 327 327 326 326 327 326 325 326
354 353 354 353 355 355 356 360 361 363 365 369 369 370 367 364 360 347 350 350 344 345 349 350 349 347 343 336 331 329 329 327 325 328 329 327 325 323 323 324 324 323 323
365 360 358 356 355 355 358 362 362 363 365 368 366 365 363 361 348 341 334 338 343 348 349 348 345 341 339 330 323 320 319 320 324 326 326 323 322 321 321 321 321 321 320
Wind_Speed
20 23 21 21 20 19 19 18 16 15 14 13 13 12 12 11 9 8 6 7 8 7 7 7 7 6 5 1 4 5 6 5 6 6 5 7 8 13 15 17 18 20 17
20 22 24 24 23 22 21 19 17 15 16 15 13 12 13 11 6 9 7 7 8 8 8 8 8 8 6 6 6 7 4 1 5 4 6 3 6 11 13 15 18 18 16
21 22 25 25 24 24 22 21 19 18 17 12 12 10 6 3 9 9 8 9 8 8 7 7 3 6 11 9 8 7 4 3 3 1 1 2 1 7 10 14 14 13 14
22 22 25 26 27 25 23 22 21 19 17 15 12 13 12 14 11 11 10 9 10 9 7 6 6 7 8 7 7 8 6 3 3 2 0 6 4 1 2 9 11 12 12
22 22 23 28 27 26 25 24 22 21 18 18 13 14 13 10 9 10 11 8 9 8 8 7 7 7 7 5 4 4 4 4 8 4 0 2 7 2 1 2 8 13 16
21 22 26 29 26 26 24 24 23 22 21 19 17 15 13 10 10 9 11 13 13 12 9 7 8 7 5 2 5 6 6 7 3 8 0 6 4 9 10 4 5 6 7
21 21 21 23 27 26 25 23 24 23 23 22 19 17 13 13 10 11 10 8 12 15 17 11 9 9 6 5 6 6 6 5 5 5 9 8 11 6 7 11 5 7 8
21 21 20 23 25 25 23 21 25 24 24 23 22 20 17 16 16 15 15 11 5 15 19 12 10 7 6 6 6 6 7 6 6 7 8 13 13 9 8 9 11 5 9
22 22 22 26 27 24 23 23 24 23 24 24 23 21 19 18 16 14 12 11 7 3 19 7 6 6 6 7 6 6 5 5 6 8 8 10 12 14 9 10 10 9 6
23 21 21 26 26 25 25 26 25 24 24 23 21 20 19 17 13 11 11 12 7 21 2 7 6 6 6 8 8 6 9 7 8 10 8 8 9 8 12 11 10 10 10
22 21 19 26 27 28 28 28 26 23 23 22 20 20 19 18 16 14 12 11 4 2 6 7 6 4 6 7 7 7 5 7 9 9 8 10 9 11 12 10 13 12 10
21 21 20 25 29 30 30 29 27 25 27 27 24 21 20 18 18 17 14 11 8 7 7 6 3 3 5 5 6 8 8 7 9 9 11 11 11 11 11 12 13 13 12
21 21 20 20 27 28 25 26 26 28 29 29 26 24 21 20 19 17 15 13 10 9 7 5 5 5 6 6 7 7 6 5 6 7 7 10 10 11 13 11 11 15 14
21 21 20 21 26 28 24 27 30 34 28 22 25 24 24 21 18 17 15 16 12 11 10 8 8 7 7 7 5 3 3 3 3 3 4 6 7 9 10 11 11 14 12
22 21 21 20 22 26 28 28 29 27 23 16 22 23 23 22 19 18 17 16 15 13 12 11 9 8 6 6 6 4 2 1 4 5 6 8 7 9 10 9 9 9 9
22 22 18 18 21 28 29 29 28 24 21 16 21 19 21 21 19 18 18 18 16 14 12 11 10 9 8 6 9 6 1 3 6 8 9 9 13 9 7 8 11 14 10
21 20 20 20 27 28 28 29 28 25 23 18 19 21 21 20 20 20 19 19 17 15 12 11 11 9 6 8 7 4 1 4 5 7 7 8 6 4 7 8 10 10 10
22 18 19 24 29 29 29 26 28 26 23 21 21 22 20 18 19 20 20 20 18 17 16 14 11 12 9 9 7 4 2 2 2 4 6 5 6 8 9 9 10 9 10
20 19 27 28 25 27 26 25 26 25 24 21 21 21 21 21 20 21 22 21 20 18 15 15 15 12 11 11 9 6 6 4 1 2 3 4 5 9 9 8 9 8 7
18 21 24 24 26 26 27 27 25 26 25 26 26 27 24 21 22 23 22 21 19 17 18 15 13 12 12 12 9 4 3 2 5 8 3 2 6 12 9 7 8 9 7
14 18 21 22 26 27 31 29 29 29 29 28 29 28 26 23 22 22 22 21 20 19 17 16 12 11 8 11 8 6 4 3 5 7 4 5 13 11 8 6 5 7 10
10 15 17 20 27 29 31 28 26 27 29 31 30 29 27 26 23 22 21 20 19 20 17 15 14 9 10 11 8 6 3 2 3 5 6 7 8 7 8 7 7 7 9
10 13 14 18 23 27 29 30 29 31 28 28 28 28 29 26 28 25 22 21 19 19 17 15 13 10 9 8 6 4 3 3 2 3 5 7 9 9 1 9 11 9 10
10 13 15 15 18 20 20 17 20 24 26 25 25 26 27 26 26 23 23 19 19 17 16 15 13 12 10 8 4 2 1 3 1 2 2 3 4 10 9 9 11 10 9
9 10 12 13 16 19 19 19 18 19 22 24 27 26 25 26 22 16 13 19 14 10 15 15 13 13 12 8 7 5 2 2 2 4 3 2 3 4 6 7 9 10 11
7 9 10 13 17 20 20 21 20 20 22 26 26 28 28 28 22 21 20 17 14 11 7 8 12 11 10 11 6 3 3 6 7 2 3 3 3 4 5 7 8 9 10
Wind_Direction
187 177 185 180 177 176 180 187 188 181 186 200 195 203 202 201 192 187 173 188 196 189 214 198 190 215 229 147 182 192 225 203 191 192 189 196 212 215 220 222 232 241 243
186 188 188 182 184 181 180 185 192 182 197 195 207 206 201 192 180 197 192 203 204 211 201 247 177 192 212 214 196 202 201 42 206 182 165 166 199 218 219 222 227 238 235
198 190 189 190 190 185 186 188 191 188 196 215 198 199 202 164 210 209 195 205 206 207 207 202 257 198 221 190 176 195 210 257 151 209 192 155 55 159 203 213 220 219 224
198 192 190 195 192 189 190 191 192 194 195 200 191 189 199 202 201 203 176 199 196 206 198 193 215 235 264 179 169 191 219 159 203 200 240 16 53 214 153 209 210 217 218
194 201 195 190 198 191 192 192 191 194 195 195 206 188 221 202 192 228 132 195 192 198 199 194 209 220 244 177 234 132 231 205 278 188 203 39 266 238 131 6 154 203 206
195 198 199 189 198 193 195 191 185 190 194 194 197 198 202 228 211 200 193 197 195 183 187 196 198 206 229 178 205 213 218 247 268 310 27 225 230 210 257 134 201 193 222
190 194 199 195 187 194 191 191 174 187 191 193 196 198 203 213 228 220 217 342 219 193 164 175 185 191 202 191 207 217 228 238 250 260 281 273 267 301 305 311 204 199 216
192 191 195 196 184 190 189 191 173 186 190 191 195 198 199 203 215 228 237 217 270 198 140 158 164 182 195 203 206 219 227 223 242 250 260 285 302 297 270 280 319 328 257
197 189 186 193 186 188 186 190 179 185 189 192 194 196 199 212 215 236 233 239 242 188 121 141 173 160 198 211 211 231 225 243 237 246 241 247 279 312 302 281 283 279 306
191 190 187 190 184 184 185 188 180 184 190 192 194 197 200 206 218 220 237 267 352 106 128 183 196 170 198 209 221 237 210 220 244 242 225 257 270 279 283 274 271 277 264
185 190 190 185 180 182 180 181 182 185 189 193 192 193 201 202 208 216 221 237 208 125 179 199 208 193 203 212 225 261 266 234 245 261 268 252 262 276 284 286 280 289 291
180 187 186 181 184 183 183 182 185 186 189 188 184 193 195 201 202 215 212 220 225 196 191 204 195 196 214 223 233 254 280 269 270 267 268 270 264 262 261 272 282 278 283
177 186 182 180 191 180 177 175 181 190 193 196 186 185 192 197 205 206 213 220 211 218 205 221 219 228 226 225 248 258 274 288 283 281 271 272 268 278 278 277 271 258 255
177 188 184 183 191 174 164 165 185 195 192 186 201 190 184 194 198 204 203 209 206 204 210 211 221 214 220 226 248 252 244 261 264 296 298 289 284 282 279 274 274 276 279
180 189 191 182 185 167 165 176 191 196 184 191 193 188 184 188 191 201 203 205 201 200 206 203 203 206 219 208 163 162 174 283 316 304 292 279 266 273 266 272 289 298 264
189 192 199 176 179 175 173 184 191 188 176 185 194 185 181 181 187 195 197 199 194 192 194 200 193 195 125 147 169 154 181 311 310 309 311 301 278 269 282 286 273 268 274
202 191 196 187 186 186 179 186 188 186 182 180 184 182 180 182 189 190 188 194 194 184 186 183 182 161 153 161 172 169 48 333 339 320 302 288 343 326 310 286 288 294 281
200 191 195 203 187 196 189 186 185 184 180 181 183 178 178 180 186 188 186 189 190 177 174 177 173 155 171 171 158 122 124 95 19 18 18 13 350 324 301 305 289 271 263
195 194 197 204 184 189 178 183 183 182 181 180 182 181 184 185 183 188 187 185 181 172 165 174 165 161 166 157 153 173 223 65 137 127 72 30 9 340 337 328 309 311 299
193 192 191 203 178 184 176 177 178 180 178 179 178 179 185 188 183 186 182 185 178 168 168 165 167 168 154 160 162 159 347 42 317 201 195 293 332 332 324 329 322 304 320
178 185 192 195 172 178 172 178 180 182 183 178 175 177 178 182 184 182 180 177 179 162 157 157 152 148 147 147 151 130 88 30 323 323 317 33 338 340 9 16 333 317 306
172 185 189 186 169 176 167 179 179 177 178 172 172 170 172 174 176 180 176 175 164 150 151 155 155 152 155 154 148 135 117 62 340 325 343 339 5 24 41 24 4 349 326
172 183 178 177 172 174 174 182 173 168 170 170 170 166 168 174 167 167 166 164 160 166 170 171 167 160 164 154 145 133 71 35 79 48 44 56 43 22 68 17 22 17 12
160 165 169 175 169 165 177 179 172 169 166 169 165 168 170 160 160 166 165 168 180 179 181 182 181 170 174 169 162 144 7 9 328 294 118 60 91 58 55 52 29 30 19
140 146 163 171 160 159 163 153 163 170 174 170 169 169 161 161 154 142 166 164 158 190 196 191 187 177 184 164 174 174 170 196 221 174 158 90 65 52 45 46 43 35 31
133 141 150 155 158 158 158 158 167 172 177 172 174 175 165 159 151 137 105 114 129 156 151 152 162 149 158 164 164 140 133 141 144 157 159 122 82 64 51 46 46 42 33